Location: Corcelles
(46.1547°N, 4.7234°E)
Time: 20:53:09
(UTC+00:00)

USA 267 - Pass Details

Date: 14 July 2020
Orbit: 1102 x 1106 km, 123.0° (Epoch: 12 August)

Event Time Altitude Azimuth Distance (km) Brightness Sun altitude
Exits shadow 00:32:10 38° 199° (SSW) 1,627 3.6 -21.4°
Maximum altitude 00:33:34 42° 228° (SW) 1,519 3.6 -21.4°
Drops below altitude 10° 00:39:44 10° 298° (WNW) 2,964 5.7 -21.2°
Sets 00:42:23 0° 306° (NW) 3,925 6.4 -21.1°
